Wind_Speed
23 23 22 21 22 21 19 20 21 20 18 16 15 14 14 15 16 16 17 15 13 13 12 12 10 9 9 7 6 5 5 4 3 4 3 3 4 4 4 4 4 4 3 3 3 3 2 2 2 2 4 8 11 8 4 3 2 8 8 7 7 6
23 23 22 22 24 22 21 21 21 18 15 15 15 13 12 15 17 17 18 16 13 12 11 11 10 10 8 7 7 6 6 5 5 5 5 4 4 4 4 4 3 3 2 2 2 3 2 1 1 2 3 5 10 8 3 3 1 7 9 8 6 6
23 23 21 22 24 23 23 21 20 16 14 15 14 12 13 17 18 18 17 16 15 14 13 11 11 10 8 8 8 6 6 6 6 6 5 5 3 3 3 2 2 1 2 2 3 2 3 3 2 1 3 4 8 6 0 2 3 5 9 7 5 5
24 23 20 20 23 22 21 20 19 16 14 15 13 12 16 20 20 19 18 17 16 15 14 12 11 11 9 9 8 7 6 6 6 5 5 4 2 1 1 1 0 2 2 2 3 4 5 6 3 1 3 4 6 5 3 5 3 5 9 7 6 5
22 23 22 20 20 20 19 18 17 17 17 15 13 13 18 20 20 19 19 18 17 16 15 13 12 12 10 10 8 7 6 5 4 3 4 3 1 1 1 1 2 4 3 3 4 8 7 6 6 3 3 4 5 6 5 6 3 7 9 7 7 5
22 22 22 19 18 18 18 17 15 16 16 14 12 13 18 20 20 18 18 18 18 16 15 13 12 11 9 8 7 6 5 4 4 2 2 3 3 2 2 2 4 7 7 8 8 8 6 4 5 4 4 5 4 4 5 5 2 5 9 7 7 5
22 22 21 19 18 16 16 15 15 16 15 13 12 15 16 18 19 17 16 17 17 15 14 12 11 10 9 9 7 7 7 6 7 5 4 3 4 3 3 5 6 6 7 8 7 6 5 4 4 5 6 6 5 5 6 5 3 5 9 8 7 6
22 22 20 18 16 15 15 14 15 15 13 12 13 15 16 16 17 16 14 15 15 16 15 12 11 9 9 9 8 8 8 7 7 6 5 4 4 3 3 6 7 6 8 6 5 4 4 5 5 4 7 6 6 7 7 7 6 6 9 8 7 7
21 20 19 17 15 14 14 12 11 12 10 11 12 16 18 16 18 17 15 15 15 15 14 12 11 9 9 9 8 7 8 8 7 6 6 6 5 3 4 6 6 6 6 5 5 4 4 5 6 4 3 6 7 8 8 9 8 9 9 7 8 9
20 18 19 20 18 16 15 13 12 12 11 11 11 16 20 19 19 18 16 15 14 15 13 12 11 9 9 8 7 6 6 6 6 6 6 6 5 3 3 2 3 4 5 4 4 4 5 5 6 6 4 9 7 8 9 11 8 10 11 9 10 10
19 19 20 22 20 17 17 16 15 14 12 13 13 15 18 18 18 16 15 15 15 15 13 13 12 10 8 7 6 6 5 4 4 5 5 5 5 4 4 2 2 4 5 4 3 3 5 5 6 6 7 10 5 11 10 11 10 11 15 12 12 11
19 21 21 19 17 17 17 17 16 15 13 14 14 15 16 16 17 15 14 15 14 13 12 13 12 9 8 7 6 6 5 4 3 3 4 4 5 6 5 2 2 3 3 3 4 4 4 6 6 5 8 11 5 16 19 8 9 10 14 14 14 12
20 22 21 19 18 18 17 16 16 15 14 16 17 16 15 16 17 14 14 14 13 12 11 11 10 10 9 7 6 6 5 4 3 2 3 3 4 6 5 3 3 3 2 3 4 5 5 6 6 5 7 10 7 12 16 15 7 8 12 11 12 10
23 23 23 23 20 19 16 14 13 12 13 17 18 17 16 18 16 14 13 12 11 11 9 8 8 10 10 7 7 6 5 4 3 3 2 2 3 4 2 2 4 3 2 2 4 5 6 7 6 6 6 5 6 5 8 15 12 4 11 12 12 10
24 21 22 23 21 19 16 14 12 11 14 16 19 19 17 18 15 12 12 10 9 8 7 6 6 9 9 6 6 6 7 6 4 5 5 4 3 3 1 2 3 3 2 3 3 4 6 7 7 6 4 2 2 5 7 10 12 6 3 8 11 11
23 22 22 21 20 19 16 14 11 11 13 13 16 16 15 15 12 9 8 7 7 7 7 7 6 8 9 5 4 4 5 5 5 5 5 4 3 2 2 2 3 4 3 1 3 3 4 6 7 5 2 2 2 6 7 4 6 8 4 4 8 8
22 22 21 20 18 18 16 14 11 10 10 10 11 11 12 14 12 9 6 4 5 6 8 8 7 8 9 6 5 6 6 6 6 6 5 4 4 4 3 2 2 4 5 2 2 3 4 4 5 4 1 1 3 6 6 3 5 7 4 4 7 7
21 20 19 17 16 17 17 14 11 9 9 10 10 10 11 12 13 11 8 6 5 6 6 7 6 7 9 7 6 8 8 8 7 5 5 4 5 4 3 3 2 2 4 4 1 2 4 1 1 2 1 1 3 4 4 3 4 5 5 4 5 7
22 20 16 16 16 17 15 13 12 11 11 11 10 10 11 11 12 12 11 9 7 6 6 6 5 5 8 7 6 7 7 7 7 5 5 5 4 4 4 4 4 3 3 4 2 1 2 2 1 0 0 1 1 1 2 2 2 4 7 8 7 8
22 19 17 16 16 16 14 12 13 13 12 11 10 10 12 12 11 11 11 11 9 8 7 6 6 6 7 7 6 6 6 6 6 6 6 6 5 4 4 5 5 4 2 3 2 0 1 2 3 3 1 1 0 1 2 2 3 6 9 11 11 9
18 17 17 17 15 14 13 12 13 12 12 12 11 12 14 13 12 12 12 11 9 9 8 7 7 7 8 6 7 7 6 6 6 5 4 6 6 4 5 4 4 5 3 3 3 2 2 4 4 4 2 0 0 1 1 2 6 8 9 11 14 13
16 14 13 14 14 12 11 13 13 12 13 14 13 13 14 13 13 13 12 11 10 9 9 8 8 8 8 6 7 7 6 6 6 5 3 5 6 5 5 4 3 3 3 3 3 3 4 4 4 3 2 2 1 1 1 3 7 9 9 11 15 17
18 16 11 10 12 11 12 13 12 12 14 14 15 15 14 13 13 13 13 11 10 9 8 7 8 8 8 7 7 7 6 5 5 4 4 4 4 5 4 3 3 3 3 3 2 3 3 3 4 4 2 1 0 0 1 4 8 10 12 13 14 15
16 15 11 9 11 12 14 13 12 13 16 17 17 16 15 13 13 13 12 10 9 9 7 7 8 9 8 8 7 7 7 6 5 4 4 4 3 2 3 3 2 3 4 4 2 3 2 0 3 3 1 1 1 1 2 4 7 10 13 15 16 16
14 11 10 10 13 15 16 15 14 15 16 17 15 14 14 13 12 12 11 10 9 9 8 8 8 9 9 8 8 8 7 7 6 4 4 5 4 4 5 4 3 4 4 4 4 4 4 2 2 2 2 1 1 1 2 4 6 8 13 15 17 17
19 15 12 13 15 16 16 15 15 15 15 15 13 13 13 12 12 13 11 10 10 9 9 9 9 10 10 8 8 7 6 7 6 6 8 9 9 8 9 8 6 7 7 5 5 7 6 4 2 3 4 1 1 2 3 4 3 4 10 12 15 16
23 19 15 15 16 15 15 15 15 15 14 14 13 13 13 13 14 13 11 11 10 9 8 9 10 9 9 9 8 6 5 5 6 9 11 10 10 10 10 9 9 10 12 11 9 9 8 5 3 4 4 3 2 3 3 3 2 3 5 7 12 18
25 22 19 19 18 16 16 16 15 15 14 14 15 15 14 14 14 13 12 11 10 10 9 9 9 9 9 8 8 7 6 5 5 10 12 11 10 10 9 10 10 12 14 15 13 12 10 8 5 5 6 6 5 5 5 4 5 6 5 4 8 14
27 25 23 21 20 19 17 17 15 15 15 17 17 16 14 14 14 12 11 11 11 11 11 10 10 10 10 9 9 9 8 8 8 10 12 11 11 11 10 11 12 12 14 15 14 14 13 10 7 6 6 6 7 8 7 8 8 9 8 5 5 6
27 25 24 23 22 19 18 18 15 14 18 19 17 16 16 15 13 12 11 11 11 11 11 11 11 11 11 11 11 11 9 9 11 13 12 10 11 12 12 13 13 13 14 14 13 13 12 11 9 8 7 6 9 9 7 7 8 10 9 8 6 6
25 25 26 25 22 20 20 19 15 15 19 19 17 18 18 15 13 12 12 12 12 11 11 11 11 12 12 12 12 12 11 10 12 12 11 11 12 12 12 13 14 13 14 14 13 13 13 12 11 11 10 10 10 8 7 9 10 11 10 8 7 6
24 25 27 25 23 22 21 19 15 15 19 19 19 19 18 16 14 13 12 13 13 13 12 11 12 12 12 12 12 12 11 12 12 12 11 12 12 12 13 14 14 14 15 15 14 14 14 14 12 11 11 12 12 11 12 14 13 13 14 13 11 8
26 27 27 25 24 22 20 19 16 15 17 18 19 18 17 16 15 13 13 13 14 13 12 12 12 12 12 12 12 12 12 12 12 11 11 12 12 12 13 14 14 14 15 14 14 15 15 14 13 13 13 13 12 11 12 13 12 13 15 15 13 10
27 27 26 25 25 23 21 19 15 14 16 18 18 17 17 16 15 14 13 14 14 14 13 12 12 12 11 11 12 12 12 12 11 11 12 12 13 14 14 14 14 15 15 15 15 16 15 15 14 14 13 13 12 12 11 9 8 10 12 11 14 14
26 23 23 25 25 24 22 18 15 16 17 17 17 17 16 16 15 14 14 14 14 14 14 13 12 12 12 12 13 12 12 12 12 12 12 12 13 14 14 14 14 15 15 14 15 16 16 16 15 15 14 13 13 13 12 11 11 10 10 11 14 14
22 21 20 23 24 23 21 17 17 19 18 17 17 16 16 15 15 15 15 15 14 14 14 13 13 13 13 13 13 12 12 11 11 11 11 12 12 13 13 13 14 14 14 13 14 15 15 15 15 15 15 15 14 14 13 13 14 14 13 11 10 7
19 19 18 20 21 21 18 17 19 19 17 18 17 16 16 15 15 16 16 15 15 16 15 15 15 14 13 13 13 12 11 10 10 11 11 11 11 12 12 13 13 13 13 13 13 14 14 14 14 15 15 15 15 15 14 14 13 13 13 11 11 12
Wind_Direction
157 159 164 166 169 171 172 173 173 174 180 185 187 182 167 155 147 141 142 143 145 147 150 151 153 156 155 161 171 170 150 139 159 168 167 158 147 151 163 171 171 181 187 186 195 198 195 193 188 159 155 164 168 166 109 35 85 132 145 144 133 106
159 162 167 169 168 171 173 176 177 178 185 189 182 179 161 140 140 147 148 146 148 151 150 152 158 160 163 173 174 166 146 140 157 163 162 151 141 147 155 166 174 192 204 214 220 209 218 254 244 197 178 179 183 177 70 17 152 141 148 143 127 101
164 164 164 166 167 170 174 179 181 184 193 189 185 180 148 132 144 151 148 149 154 153 146 152 160 160 164 168 165 157 142 138 150 157 160 154 153 154 151 167 185 216 257 269 251 225 230 249 281 243 218 205 192 193 137 230 222 167 162 154 137 108
166 165 160 163 168 172 178 185 186 192 196 186 188 180 142 134 144 149 152 156 160 154 150 156 157 157 160 161 161 154 143 137 145 155 161 166 179 169 176 204 252 304 299 287 280 279 260 239 238 308 256 216 213 245 240 216 226 161 163 165 148 118
169 168 164 163 173 181 186 192 193 194 192 183 184 166 138 137 144 151 161 163 165 161 159 162 157 160 163 162 161 152 144 129 132 158 173 175 221 212 238 268 320 343 324 288 294 289 280 247 224 259 261 224 255 268 220 210 210 146 154 163 144 123
169 171 169 167 174 183 187 191 191 186 186 183 173 149 135 142 150 158 166 167 171 167 165 163 157 164 164 160 161 154 149 139 144 178 201 199 215 235 342 325 312 344 325 296 295 286 290 282 242 256 239 221 257 257 213 215 211 153 167 164 139 132
165 169 172 173 172 175 181 184 183 179 181 178 159 147 144 149 157 166 169 172 177 173 169 169 165 170 167 164 171 174 174 172 176 182 198 223 243 265 344 325 305 317 290 280 297 300 303 289 262 284 267 233 229 238 229 207 163 156 172 167 147 145
159 164 168 172 168 167 172 172 176 176 175 170 145 140 148 156 162 167 171 175 183 181 175 178 179 179 178 176 181 188 190 192 191 193 199 226 262 263 261 260 257 250 245 258 288 303 307 258 228 268 285 263 230 224 222 210 200 173 170 175 158 150
152 152 153 160 164 164 165 157 158 161 157 162 143 131 141 155 162 165 172 174 181 187 184 183 183 181 183 183 181 186 197 203 206 211 216 230 248 251 235 249 267 261 257 279 265 255 290 261 236 230 271 299 259 226 211 206 212 190 182 194 170 155
142 141 149 162 166 159 160 155 152 156 150 147 135 131 140 153 165 172 179 179 181 189 188 183 182 184 183 181 182 187 200 207 208 210 217 228 244 259 243 256 301 261 245 269 243 246 272 257 265 239 264 320 287 248 224 199 218 209 192 198 182 165
139 143 158 168 166 156 163 168 162 160 146 134 134 143 147 154 169 177 184 190 191 189 185 179 180 185 181 170 172 191 201 196 205 211 216 236 255 256 242 236 241 216 219 255 245 258 261 252 280 257 296 330 284 289 284 207 223 218 185 183 186 172
144 148 157 162 157 150 161 171 165 152 135 134 144 154 155 159 175 182 187 196 199 193 187 184 182 179 174 161 165 193 200 188 197 200 202 236 261 250 247 274 273 237 216 241 251 255 258 264 288 276 318 348 292 301 316 272 238 206 176 174 179 172
144 146 149 152 148 140 148 162 160 146 131 133 140 150 158 163 174 182 188 195 198 194 190 190 184 172 169 166 174 191 186 180 182 168 177 211 254 252 255 281 272 267 228 222 247 251 254 261 283 283 310 355 338 309 326 323 304 184 170 162 167 166
146 147 143 143 142 135 135 142 145 137 129 134 144 156 164 162 167 178 188 194 192 193 194 193 179 163 159 161 183 189 166 161 166 162 164 183 236 250 249 260 249 255 258 253 251 246 255 259 269 275 283 341 4 344 334 339 353 151 163 143 148 150
149 147 140 138 138 138 137 134 134 139 143 150 159 164 162 158 161 175 188 189 180 185 196 197 179 161 148 146 189 187 152 148 149 155 160 178 220 239 195 196 219 226 269 301 287 262 268 270 266 266 270 286 11 21 355 346 6 22 114 122 137 146
147 144 142 139 135 137 141 137 137 144 148 151 154 154 149 148 151 164 180 179 166 163 165 166 167 168 152 136 184 180 152 157 146 146 154 165 176 193 218 192 186 193 181 290 300 295 293 280 272 265 244 253 314 11 1 343 34 42 32 77 125 149
149 147 143 138 135 138 142 143 145 142 136 129 127 129 131 136 138 146 158 148 143 141 144 155 163 175 163 149 172 170 166 169 157 152 154 163 169 167 182 163 172 186 160 162 283 322 330 290 274 284 202 178 346 3 352 338 48 67 78 97 125 145
151 148 141 136 141 144 145 148 146 134 126 117 107 109 117 129 135 140 145 131 127 126 133 153 162 167 160 158 170 160 158 160 154 153 155 171 188 181 175 173 184 183 156 158 227 310 343 333 263 303 136 94 3 354 344 343 18 52 78 81 100 115
146 146 142 141 145 144 144 144 134 120 118 107 97 107 108 114 127 132 136 136 139 136 130 138 146 151 149 152 158 149 154 159 156 160 161 169 188 194 183 176 179 189 175 157 159 326 12 66 79 77 119 47 18 342 347 347 352 31 62 66 74 90
140 144 146 149 146 141 138 132 124 116 114 109 108 119 110 104 114 118 122 131 139 139 135 133 139 145 140 145 149 139 142 148 152 160 164 170 182 197 191 178 179 188 189 149 151 234 71 104 93 94 81 1 146 73 359 355 30 44 58 75 91 100
134 142 149 151 146 142 140 134 130 125 123 123 121 118 110 107 111 112 112 113 116 121 124 122 119 124 126 129 130 123 126 133 138 147 166 174 173 186 197 190 182 184 184 155 164 193 147 132 121 109 97 51 276 39 352 5 50 56 56 74 94 103
137 144 150 155 151 145 142 137 135 135 133 128 125 118 112 112 111 108 105 103 105 106 107 108 103 109 114 107 104 108 116 126 129 131 145 157 159 177 191 188 175 171 171 149 154 176 169 158 147 132 142 170 241 300 358 35 60 64 62 74 94 105
153 154 156 161 155 144 134 132 129 130 129 118 113 114 113 113 110 106 104 103 107 110 110 111 105 105 108 102 100 108 114 114 116 122 135 147 162 177 177 184 181 157 151 147 147 162 177 196 158 131 127 145 103 44 31 59 69 64 68 76 88 106
154 157 165 165 154 136 126 125 117 114 118 110 105 109 109 108 107 104 104 105 108 111 110 105 101 99 100 100 100 104 108 106 107 115 130 146 159 155 143 160 163 128 134 146 146 132 126 170 146 126 91 54 75 81 40 85 89 67 68 73 78 99
150 161 175 163 146 132 125 124 117 112 115 113 112 114 111 110 112 109 108 110 109 108 106 100 100 101 100 98 94 96 102 101 96 90 89 94 81 65 79 82 67 76 102 133 143 126 110 110 143 143 147 121 27 60 77 121 117 71 66 74 79 95
150 156 168 155 143 136 133 132 127 123 123 124 128 128 123 122 123 118 117 117 115 114 113 106 101 99 98 98 97 97 106 107 99 87 82 84 78 67 68 68 65 69 68 83 122 121 115 124 139 131 136 145 6 56 111 135 148 86 72 79 84 88
143 147 157 153 146 144 144 144 138 134 136 137 136 130 124 120 119 118 118 117 117 116 109 103 98 97 98 99 97 91 97 112 123 110 91 83 84 77 73 72 69 71 71 79 98 106 109 115 110 89 90 105 84 78 107 105 103 121 98 82 84 84
143 149 158 157 153 153 153 150 144 142 141 134 126 120 116 115 117 122 125 124 125 119 108 104 101 100 101 98 94 93 90 79 105 119 102 87 85 81 79 80 77 76 76 80 88 91 96 101 102 97 83 82 88 87 98 92 82 101 116 112 93 85
149 153 157 157 156 158 157 151 149 144 133 123 121 123 122 121 125 132 133 127 120 112 108 106 103 102 100 97 95 98 93 64 65 95 99 91 90 86 85 85 82 83 80 80 85 87 89 89 92 109 107 107 132 132 111 100 100 101 104 119 121 100
152 155 156 159 158 159 159 155 150 140 131 129 132 133 130 130 135 136 129 121 117 115 113 108 106 105 99 98 98 97 94 74 69 82 89 94 98 94 90 88 84 85 84 83 86 87 88 85 78 79 78 96 132 139 124 112 107 104 97 92 105 117
155 158 157 160 161 159 160 158 150 137 137 141 143 138 133 135 139 138 133 132 130 126 121 113 108 106 102 99 98 97 95 87 82 85 89 97 100 96 91 88 86 84 84 85 86 85 85 86 82 75 65 72 86 83 101 121 116 119 121 111 115 125
158 161 159 161 163 161 161 160 150 141 145 149 144 138 138 142 145 146 146 139 132 128 126 122 115 110 106 103 100 100 98 95 92 88 88 92 94 95 91 88 88 86 84 85 87 85 82 81 80 73 64 71 77 66 83 109 113 117 129 138 142 138
158 162 162 164 164 161 162 160 150 147 154 151 142 139 143 147 150 154 152 141 137 138 136 129 122 116 111 109 106 104 103 101 99 95 94 93 93 97 96 92 91 90 88 87 88 85 81 78 75 71 66 69 76 68 75 98 113 124 140 152 147 129
159 163 164 163 162 160 160 157 154 157 158 149 141 144 149 151 155 157 153 149 148 146 139 132 128 122 119 117 112 108 107 105 103 101 97 92 93 96 96 95 93 91 90 89 89 86 83 80 76 76 75 70 68 61 62 72 98 134 151 148 135 128
161 164 164 162 162 161 160 159 161 163 158 148 145 149 152 156 159 157 154 154 151 145 139 136 132 127 123 119 115 111 109 107 105 101 98 94 93 93 94 94 92 89 88 86 85 84 82 81 77 77 79 73 65 57 57 55 59 81 93 105 122 134
162 165 163 162 162 162 163 163 164 162 156 150 150 152 156 160 159 156 156 154 149 146 143 140 135 132 128 122 119 116 112 110 109 106 105 102 98 96 96 96 94 91 90 88 87 84 82 79 76 77 78 75 69 60 56 57 60 62 62 85 101 84
161 161 159 159 161 163 165 164 162 160 154 151 154 158 160 160 158 157 157 154 150 150 149 144 141 138 132 126 122 123 120 117 116 112 109 104 100 99 97 95 95 92 90 88 87 85 82 79 76 76 77 76 72 68 64 62 65 60 47 62 67 40
Height
776 778 779 780 782 783 786 788 789 791 793 795 796 799 799 801 804 805 807 807 807 807 807 807 808 810 810 811 811 811 811 811 813 815 816 817 817 818 819 820 821 822 822 823 823 823 824 824 825 825 825 826 826 826 826 826 828 828 826 828 828 828
777 778 779 781 782 784 787 789 790 792 793 795 796 800 801 802 804 804 806 806 807 808 808 808 809 810 810 811 812 812 812 812 814 816 817 818 818 819 820 821 822 823 824 824 824 825 825 826 826 826 826 827 827 827 827 827 828 828 827 828 829 829
777 779 780 782 784 786 788 789 791 793 794 796 798 800 801 803 803 804 806 806 808 808 808 810 810 811 811 812 812 813 813 813 815 817 818 819 820 821 822 823 824 825 825 826 826 826 826 827 827 827 827 828 827 828 828 828 829 828 827 828 829 830
777 779 781 783 786 787 789 790 792 793 795 797 799 801 802 803 803 804 806 807 808 809 809 810 811 812 812 812 813 813 814 815 816 817 819 820 821 822 823 824 825 826 827 827 827 826 827 828 828 828 828 828 828 828 828 829 829 828 828 829 829 830
776 779 782 784 786 788 789 791 792 794 796 797 800 802 802 803 804 806 807 808 809 810 811 811 812 812 812 813 813 814 815 816 817 818 820 821 822 823 824 825 826 827 828 828 827 827 828 829 828 828 828 828 828 828 829 830 829 828 828 829 830 830
776 780 783 785 786 788 789 791 793 795 797 799 801 803 803 804 805 807 808 808 809 810 811 812 812 812 813 813 814 815 816 817 818 820 821 822 823 824 825 827 829 830 829 828 828 829 829 829 828 828 828 828 828 828 829 829 829 828 829 830 830 831
778 781 784 786 787 789 790 792 794 796 798 800 802 804 805 805 806 807 807 808 810 811 812 812 812 813 813 814 815 815 816 818 819 821 822 823 824 825 827 829 830 831 828 827 828 829 828 828 827 828 828 828 828 829 829 830 829 828 829 830 830 831
779 783 785 787 788 790 792 793 795 797 799 801 803 806 807 807 807 806 807 808 810 811 812 812 812 813 813 814 815 816 817 818 819 821 822 823 823 824 825 825 826 826 825 825 826 827 827 826 826 826 827 828 828 829 830 829 829 829 829 830 830 831
781 785 788 789 790 791 792 794 796 799 801 803 805 806 808 807 807 807 808 808 809 810 811 811 812 813 814 815 816 817 818 819 820 821 821 821 821 822 822 822 824 825 825 825 825 825 825 826 826 826 826 828 829 829 830 829 828 830 830 830 830 831
783 787 789 788 790 791 793 794 796 799 802 804 806 807 807 807 807 808 808 808 809 810 810 811 812 813 814 816 817 817 818 819 820 821 821 820 820 822 821 822 824 824 825 825 825 825 824 825 825 825 826 828 828 829 830 829 828 829 830 830 830 831
785 788 787 787 789 791 791 793 795 798 801 805 807 808 807 807 808 809 808 809 809 810 811 811 813 814 815 816 817 817 818 819 820 820 820 819 820 822 822 823 824 823 823 823 824 824 824 824 824 825 827 828 827 828 830 830 828 829 829 830 830 831
785 787 788 788 789 790 791 792 794 798 803 806 806 807 808 809 809 809 809 810 810 810 811 811 812 814 815 816 817 817 817 818 819 819 819 819 819 821 822 823 823 822 822 822 823 823 823 823 824 825 827 829 828 828 831 831 830 829 829 830 830 832
785 787 788 789 789 790 791 792 795 798 804 806 805 807 809 810 810 810 810 809 810 811 811 812 813 814 815 816 816 816 817 817 817 818 818 818 818 820 821 822 822 822 822 822 822 823 824 824 824 825 826 828 827 827 831 833 832 830 830 831 831 832
784 786 787 788 789 790 790 792 795 798 803 805 807 809 810 811 811 810 808 808 810 811 811 812 813 814 815 816 816 816 817 817 816 817 817 817 818 819 821 822 822 822 822 823 823 823 824 824 824 824 825 827 827 828 832 835 835 832 831 831 832 833
782 784 786 787 788 790 791 792 795 798 803 807 809 809 810 810 810 808 807 808 810 811 811 811 812 814 815 816 816 816 817 817 817 818 818 819 820 820 821 822 822 823 824 824 824 824 824 823 823 824 824 826 827 828 831 835 838 836 833 832 832 833
781 783 785 787 789 790 792 794 797 799 803 806 808 808 808 808 808 807 806 807 809 810 811 812 813 814 816 816 815 816 816 816 817 818 819 820 821 821 822 822 823 824 824 824 824 824 824 824 824 824 825 825 827 828 830 833 837 837 836 835 835 835
780 783 785 787 789 791 793 795 797 799 801 803 805 806 807 808 808 807 805 805 807 809 811 812 813 814 816 817 817 817 817 817 818 819 820 820 821 822 822 823 823 824 824 824 824 824 824 824 824 825 825 826 828 828 830 832 834 835 835 834 835 835
781 783 785 788 790 792 793 795 797 799 801 802 804 806 807 808 809 808 806 806 807 809 811 812 813 815 816 818 818 818 818 818 818 819 820 821 821 822 822 823 823 824 824 824 824 824 824 824 824 825 825 827 828 829 829 830 832 834 835 834 833 835
782 784 786 788 790 792 793 795 798 799 801 803 805 806 807 808 809 809 808 809 810 811 812 812 813 814 816 817 817 817 817 817 818 820 821 821 822 822 823 823 823 824 824 824 824 824 824 824 824 825 826 827 828 829 830 830 832 833 835 837 836 836
783 785 788 790 791 792 794 796 798 800 801 803 805 806 806 807 809 809 810 811 812 812 813 814 815 815 816 816 817 817 817 818 819 820 821 822 822 822 823 823 823 824 824 824 824 824 825 825 825 825 826 827 828 830 830 831 832 833 835 838 838 838
786 788 789 790 792 793 794 796 798 799 801 802 804 805 806 808 809 810 810 811 812 814 814 815 816 816 817 817 816 817 818 819 820 821 822 822 823 823 823 822 823 823 823 824 824 825 825 825 826 826 827 828 829 829 830 831 833 834 836 838 839 839
788 790 791 792 793 794 795 796 798 799 800 802 803 805 806 808 809 809 810 811 812 814 815 815 816 816 817 817 817 817 818 819 820 821 822 823 823 823 823 823 822 823 823 824 824 825 824 825 826 827 827 828 829 829 830 831 833 835 836 838 839 839
787 790 793 794 794 795 795 796 797 798 800 801 802 804 806 807 808 808 809 811 812 814 815 815 816 816 816 817 817 818 819 820 821 821 822 823 823 823 823 823 823 823 823 823 824 825 825 825 825 826 827 827 828 829 830 831 834 835 836 837 838 839
788 790 793 796 796 795 795 796 797 798 799 801 803 804 806 807 808 809 810 812 813 814 815 815 816 816 817 818 818 819 820 820 821 822 823 823 823 823 823 822 822 823 823 824 825 825 825 825 826 826 826 827 827 829 832 833 834 836 837 838 838 838
788 792 795 796 796 795 795 796 797 798 799 801 803 804 805 807 808 809 811 812 813 814 815 816 817 817 818 818 819 819 820 821 822 822 823 823 823 823 822 822 823 823 823 824 824 825 825 826 827 827 827 827 828 830 832 832 834 837 838 838 839 839
787 791 795 795 794 795 794 795 796 797 799 800 801 803 805 807 808 810 812 813 814 815 816 816 817 817 818 819 819 820 820 821 822 823 823 823 823 824 823 823 823 823 824 824 824 825 826 826 827 827 827 827 828 829 830 831 834 838 840 840 840 841
784 788 792 793 792 793 793 794 795 796 798 799 800 802 805 807 809 811 813 814 815 816 816 816 816 817 818 819 820 820 821 821 822 822 823 824 824 824 825 824 824 824 824 824 824 825 826 827 826 827 827 827 828 828 829 831 833 836 840 842 841 841
781 785 789 790 790 792 792 793 794 795 797 798 800 802 805 807 809 811 813 814 815 816 816 816 816 817 818 819 820 820 821 821 822 822 823 824 825 825 825 825 825 825 824 824 824 825 826 826 826 827 827 827 828 829 829 830 831 833 837 841 843 843
781 783 786 787 789 791 792 793 794 795 796 797 800 802 804 807 809 811 813 814 814 815 815 816 816 817 818 819 820 820 821 821 822 822 823 824 825 826 826 826 826 825 825 825 825 826 826 826 826 826 826 826 828 829 829 830 831 832 834 839 843 843
780 782 783 785 788 789 791 793 793 794 795 797 799 801 804 806 808 810 812 813 814 814 815 816 816 817 818 819 820 821 821 822 822 822 823 825 825 826 827 826 826 826 826 826 826 826 826 827 826 826 826 827 828 828 829 830 831 832 834 837 841 843
780 780 782 784 786 788 790 792 793 794 795 797 799 800 802 805 808 810 811 812 813 815 815 816 816 817 818 819 820 821 821 822 822 823 824 825 826 827 827 827 827 826 826 827 827 827 827 827 827 827 827 827 827 827 828 829 830 831 833 835 839 842
778 779 781 783 785 787 789 790 792 793 795 796 797 799 801 804 807 809 810 812 813 814 816 816 817 817 818 819 820 820 821 822 823 824 824 825 826 827 827 827 827 827 827 828 828 828 827 827 827 827 827 827 827 827 827 828 829 830 832 833 836 838
777 778 780 782 784 786 788 790 791 792 795 796 796 798 801 803 806 808 809 811 812 814 816 816 817 817 818 819 819 820 821 822 823 823 824 825 826 827 827 827 828 828 828 828 829 829 828 828 828 828 828 827 828 828 828 829 829 830 831 832 833 835
775 777 779 780 781 784 786 789 790 792 795 796 795 798 800 803 805 807 809 811 812 813 815 816 817 817 817 818 819 820 821 822 823 823 824 825 825 826 827 827 828 828 828 829 829 829 829 829 829 829 829 829 829 828 829 830 830 830 831 831 832 834
775 778 779 779 780 782 785 787 789 792 794 795 796 798 801 803 805 806 808 810 811 812 814 815 816 816 817 818 819 820 821 822 823 824 824 825 825 826 827 827 828 828 829 830 830 830 830 830 830 830 830 830 830 830 830 830 830 830 831 832 832 833
776 778 779 779 780 782 785 787 789 791 793 794 796 798 801 803 804 806 808 809 811 812 813 815 815 816 817 818 819 820 822 823 823 824 825 825 826 826 827 828 828 829 830 830 831 831 831 831 832 832 832 832 832 832 831 830 830 830 831 832 833 834
777 778 779 780 782 784 786 787 789 791 792 794 796 799 801 803 804 806 807 809 810 812 813 814 816 816 817 818 819 821 822 823 824 824 825 825 826 827 827 828 828 829 830 831 832 832 833 833 833 834 834 834 834 834 834 833 833 833 833 833 833 834